Volver al catálogo

ONEWEB-0412

ActivoComunicacionesPO
NORAD 50489·PAYLOAD·🇬🇧 United Kingdom

Lanzado Dec 27, 2021 desde Baikonur Cosmodrome

Loading…

Próximos Pases (próximas 24 horas)

TLE

ActualizadoSource: CelesTrak SupGP

Época: Sep 14, 2026, 21:22 UTC

1 50489C 21132W   26257.89042083 -.00000116  00000+0 -29522-3 0  2570
2 50489  87.9160 317.6351 0002246  95.3162  17.0029 13.18683741    17

Sigue ONEWEB-0412 en tiempo real con AllMySat

Download on the App Store